FW2545 Weather Reports


Display with metric or nautical units.
time (UTC)temp
F
wind
direction
speed
MPH
gust
MPH
rain 1hr
in
rain 24hr
in
rain mn
in
humidity
%
barometer
mb
20260502204532 79 38 4.0 11.0 0.00 0.00 0.00 43 1016.4
20260502203031 79 24 3.0 9.0 0.00 0.00 0.00 44 1016.5
20260502201607 79 22 4.0 12.0 0.00 0.00 0.00 45 1016.8
20260502191530 77 276 1.0 5.0 0.00 0.00 0.00 47 1017.3
20260502190028 74 249 2.0 7.0 0.00 0.00 0.00 54 1017.5
20260502184603 70 268 2.0 8.0 0.00 0.00 0.00 59 1017.7
20260502183106 68 269 2.0 6.0 0.00 0.00 0.00 61 1017.6
20260502181530 66 250 3.0 6.0 0.00 0.00 0.00 65 1017.6
20260502180115 65 278 2.0 4.0 0.00 0.00 0.00 68 1017.5
20260502180104 64 264 1.0 3.0 0.00 0.00 0.00 71 1017.5
20260502163030 57 42 3.0 6.0 0.00 0.00 0.00 83 1018.2
20260502161532 56 55 3.0 8.0 0.00 0.00 0.00 85 1018.1
20260502123031 51 204 0.0 3.0 0.00 0.00 0.00 86 1016.3
20260502114531 52 307 2.0 8.0 0.00 0.00 0.00 84 1016.4
20260502113031 52 247 3.0 8.0 0.00 0.00 0.00 84 1016.6
20260502110040 51 32 2.0 7.0 0.00 0.00 0.00 85 1016.3
20260502104529 51 48 1.0 6.0 0.00 0.00 0.00 84 1016.7
20260502103030 51 82 1.0 4.0 0.00 0.00 0.00 84 1016.7
20260502091534 49 259 2.0 5.0 0.00 0.00 0.00 82 1016.6
20260502090107 49 208 1.0 5.0 0.00 0.00 0.00 82 1016.9
20260502071530 50 247 0.0 1.0 0.00 0.00 0.00 79 1017.1
20260502070027 50 247 0.0 3.0 0.00 0.00 0.00 78 1017.1
20260502064532 51 223 0.0 3.0 0.00 0.00 0.00 77 1017.1
20260502063029 51 204 0.0 3.0 0.00 0.00 0.00 76 1017.1
20260502054528 53 270 1.0 5.0 0.00 0.00 0.00 74 1016.9
20260502053145 53 292 2.0 5.0 0.00 0.00 0.00 73 1016.8
20260502050031 57 45 0.0 2.0 0.00 0.00 0.00 67 1016.7
20260502043105 62 42 2.0 5.0 0.00 0.00 0.00 57 1016.5
20260502041606 64 33 4.0 7.0 0.00 0.00 0.00 52 1016.3
20260502040104 65 348 4.0 9.0 0.00 0.00 0.00 49 1016.1
20260502034531 66 324 5.0 9.0 0.00 0.00 0.00 48 1016.0
20260502031532 67 334 4.0 7.0 0.00 0.00 0.00 45 1015.6
20260502024532 69 337 4.0 6.0 0.00 0.00 0.00 44 1015.1
20260502023032 70 337 3.0 5.0 0.00 0.00 0.00 43 1015.0
20260502021602 71 352 3.0 6.0 0.00 0.00 0.00 41 1015.0
20260502020031 72 17 4.0 6.0 0.00 0.00 0.00 40 1014.9
20260502014530 72 7 4.0 7.0 0.00 0.00 0.00 39 1014.9
20260502013037 73 1 4.0 9.0 0.00 0.00 0.00 38 1014.9
20260502011534 73 19 4.0 10.0 0.00 0.00 0.00 37 1015.0
20260502004532 75 23 5.0 11.0 0.00 0.00 0.00 34 1015.0
20260502003148 77 33 6.0 12.0 0.00 0.00 0.00 33 1015.0
20260502001530 78 54 6.0 15.0 0.00 0.00 0.00 33 1015.1
20260502000032 78 46 5.0 16.0 0.00 0.00 0.00 34 1015.2
20260501234647 79 37 6.0 13.0 0.00 0.00 0.00 35 1015.4
20260501233032 79 52 6.0 14.0 0.00 0.00 0.00 35 1015.5
20260501230030 78 42 6.0 14.0 0.00 0.00 0.00 34 1015.9
20260501224532 80 33 6.0 13.0 0.00 0.00 0.00 34 1016.1
20260501223036 80 44 6.0 13.0 0.00 0.00 0.00 35 1016.3
20260501221528 80 44 7.0 14.0 0.00 0.00 0.00 35 1016.4
20260501220048 79 30 7.0 14.0 0.00 0.00 0.00 36 1016.6
20260501214553 78 26 7.0 16.0 0.00 0.00 0.00 37 1016.9
20260501213030 78 27 7.0 14.0 0.00 0.00 0.00 38 1017.0
20260501210030 77 21 5.0 14.0 0.00 0.00 0.00 41 1017.5